This demonstration page uses our WeatherBlox Daily Observations layout. Learn more.

Left ArrowRight Arrow

Hourly Observations for October 12, 2015

Temp ( °F °C ) Dew Point ( °F °C ) Humidity (%) Winds ( mph kmh ) Pressure ( in mb ) Visibility ( mi km ) Precip ( " mm )
12:53 am 00:53 Clear 46 7.8 44 6.7 93 93 Calm 29.86 1011 10 16 0.00 0.00
1:53 am 01:53 Clear 46 7.8 44 6.7 93 93 E 3 6 29.85 1011 10 16 0.00 0.00
2:53 am 02:53 Clear 46 7.8 44 6.7 93 93 E 3 6 29.85 1011 10 16 0.00 0.00
3:53 am 03:53 Clear 48 8.9 45 7.2 89 89 ESE 3 6 29.85 1011 10 16 0.00 0.00
4:53 am 04:53 Clear 49 9.4 46 7.8 90 90 E 5 7 29.82 1010 10 16 0.00 0.00
5:53 am 05:53 Clear 45 7.2 43 6.1 93 93 ESE 3 6 29.82 1010 10 16 0.00 0.00
6:53 am 06:53 Clear 50 10 46 7.8 86 86 ESE 5 7 29.81 1010 10 16 0.00 0.00
7:53 am 07:53 Sunny 49 9.4 46 7.8 90 90 Calm 29.80 1009 10 16 0.00 0.00
8:53 am 08:53 Mostly Cloudy 55 12.8 49 9.4 80 80 ESE 3 6 29.80 1009 10 16 0.00 0.00
9:53 am 09:53 Sunny 60 15.6 50 10 70 70 SE 3 6 29.77 1008 10 16 0.00 0.00
10:53 am 10:53 Sunny 68 20 49 9.4 51 51 SW 9 15 29.75 1007 10 16 0.00 0.00
11:53 am 11:53 Sunny 73 22.8 51 10.6 46 46 SSW 10 17 29.72 1006 10 16 0.00 0.00
12:53 pm 12:53 Sunny 76 24.4 52 11.1 43 43 SW 13 20 29.69 1005 10 16 0.00 0.00
1:53 pm 13:53 Sunny 78 25.6 53 11.7 42 42 SSW 13 20 29.66 1004 10 16 0.00 0.00
2:53 pm 14:53 Sunny 80 26.7 53 11.7 39 39 S 8 13 29.62 1003 10 16 0.00 0.00
3:53 pm 15:53 Mostly Cloudy 79 26.1 54 12.2 42 42 SW 12 19 29.61 1003 10 16 0.00 0.00
4:53 pm 16:53 Sunny 80 26.7 55 12.8 42 42 SW 13 20 29.59 1002 10 16 0.00 0.00
5:53 pm 17:53 Mostly Cloudy 77 25 56 13.3 48 48 SSW 9 15 29.58 1002 10 16 0.00 0.00
6:36 pm 18:36 Cloudy with Nearby Thunderstorms 74 23.3 58 14.4 57 57 SSW 7 11 29.56 1001 10 16 0.00 0.03
6:53 pm 18:53 Cloudy with Nearby Thunderstorms 73 22.8 59 15 62 62 WSW 6 9 29.61 1003 10 16 0.00 0.03
7:09 pm 19:09 Cloudy with Heavy Rain 67 19.4 62 16.7 84 84 WSW 6 9 29.65 1004 3 5 0.07 1.78
7:17 pm 19:17 Cloudy with Rain 66 18.9 63 17.2 90 90 VRB 6 9 29.65 1004 3 4 0.09 2.29
7:25 pm 19:25 Cloudy with Light Rain 66 18.9 63 17.2 90 90 Calm 29.62 1003 6 10 0.10 2.54
7:53 pm 19:53 Cloudy with Light Rain 65 18.3 63 17.2 93 93 ESE 6 9 29.61 1003 5 8 0.17 4.32
8:53 pm 20:53 Mostly Cloudy 64 17.8 61 16.1 90 90 VRB 3 6 29.61 1003 10 16 0.00 0.03
9:53 pm 21:53 Mostly Clear 60 15.6 59 15 96 96 Calm 29.64 1004 10 16 0.00 0.00
10:53 pm 22:53 Clear with Mist and Fog 60 15.6 59 15 96 96 Calm 29.62 1003 5 8 0.00 0.00
11:20 pm 23:20 Mostly Cloudy with Mist and Fog 61 16.1 60 15.6 97 97 Calm 29.62 1003 4 6 0.00 0.00
11:37 pm 23:37 Cloudy with Mist and Fog 63 17.2 62 16.7 97 97 SW 5 7 29.62 1003 6 10 0.00 0.00
11:53 pm 23:53 Cloudy with Mist and Fog 64 17.8 62 16.7 93 93 SW 5 7 29.62 1003 6 10 0.00 0.00

Powered by AerisWeather